Regional Weather Roundup
Issued by NWS

Home | Current Version | Previous Version | Text Only | Print | Product List | Glossary Off
Versions: 1 2 3 4 5 6 7 8 9 10 11 12 13 14 15 16 17 18 19 20 21 22 23 24 25 26 27 28 29 30 31 32 33 34 35 36 37 38 39 40 41 42 43 44 45 46 47 48 49 50

000
ASUS43 KBIS 251810
RWRND

NORTH DAKOTA REGIONAL WEATHER ROUNDUP
NATIONAL WEATHER SERVICE BISMARCK ND
100 PM CDT MON JUL 25 2016

NOTE: "FAIR" INDICATES FEW OR NO CLOUDS BELOW 12,000 FEET WITH NO
SIGNIFICANT WEATHER AND/OR OBSTRUCTIONS TO VISIBILITY.


NDZ001>003-009>011-017-251900-
NORTHWEST NORTH DAKOTA

CITY           SKY/WX    TMP DP  RH WIND       PRES   REMARKS
WILLISTON      SUNNY     87  53  31 NE8       29.98S
6HR MIN TEMP:  61; 6HR MAX TEMP:  88;

MINOT          SUNNY     87  59  38 E5        29.95F
MINOT AFB      SUNNY     82  60  48 NE5       29.95S
$$

NDZ018>021-031>035-040>046-251900-
SOUTHWEST NORTH DAKOTA

CITY           SKY/WX    TMP DP  RH WIND       PRES   REMARKS
BISMARCK       SUNNY     86  64  47 S9        29.97F
6HR MIN TEMP:  60; 6HR MAX TEMP:  87;

DICKINSON      SUNNY     87  54  32 VRB3      29.98F
GARRISON         N/A     81  65  58 SE5       29.98R
6HR MIN TEMP:  60; 6HR MAX TEMP:  81;

HETTINGER ARPT SUNNY     94  54  25 SE9       30.01F HX  92
$$

NDZ004>008-012>016-024-026-027-054-251900-
NORTHEAST NORTH DAKOTA

CITY           SKY/WX    TMP DP  RH WIND       PRES   REMARKS
GRAND FORKS    MOSUNNY   83  61  47 SE8       29.98F
GRND FRKS AFB  SUNNY     83  62  48 SW10      29.99F
DEVILS LAKE    SUNNY     81  63  54 SE9       29.99F
$$

NDZ022-023-025-028>030-036>039-047>053-251900-
SOUTHEAST NORTH DAKOTA

CITY           SKY/WX    TMP DP  RH WIND       PRES   REMARKS
FARGO          SUNNY     85  60  42 S9        30.01F
6HR MIN TEMP:  62; 6HR MAX TEMP:  85;

JAMESTOWN      SUNNY     87  64  46 S16       29.99F
$$




USA.gov is the U.S. government's official web portal to all federal, state and local government web resources and services.